KC9SDK Weather Reports


time (UTC)temp
C
wind
direction
speed
KPH
gust
KPH
rain 1hr
cm
rain 24hr
cm
rain mn
cm
humidity
%
barometer
mb
20260504034504 11 30 0.0 0.0 0.00 0.00 0.00 77 1006.9
20260504033004 11 30 0.0 0.0 0.00 0.00 0.00 76 1007.0
20260504031505 11 30 0.0 0.0 0.00 0.00 0.00 74 1006.9
20260504030006 12 30 0.0 0.0 0.00 0.00 0.00 72 1006.9
20260504024505 13 30 0.0 0.0 0.00 0.00 0.00 69 1006.8
20260504023002 14 345 0.0 0.0 0.00 0.00 0.00 65 1006.7
20260504021502 16 238 0.0 0.0 0.00 0.00 0.00 60 1006.6
20260504014600 18 284 0.0 0.0 0.00 0.00 0.00 51 1006.4
20260504013111 18 244 0.0 0.0 0.00 0.00 0.00 48 1006.3
20260504011600 19 234 0.0 0.0 0.00 0.00 0.00 48 1006.2
20260504010114 20 268 0.0 0.0 0.00 0.00 0.00 45 1006.1
20260504004625 21 263 0.0 0.0 0.00 0.00 0.00 43 1005.9
20260504003058 21 331 0.0 1.6 0.00 0.00 0.00 42 1005.8
20260504001607 21 288 1.6 11.3 0.00 0.00 0.00 41 1005.8
20260504000057 22 303 4.8 17.7 0.00 0.00 0.00 39 1005.7
20260503234557 22 284 3.2 12.9 0.00 0.00 0.00 40 1005.5
20260503233058 22 259 3.2 12.9 0.00 0.00 0.00 40 1005.5
20260503231557 22 290 1.6 17.7 0.00 0.00 0.00 40 1005.6
20260503230059 22 245 3.2 19.3 0.00 0.00 0.00 43 1005.8
20260503224552 22 334 4.8 19.3 0.00 0.00 0.00 43 1005.9
20260503223057 22 289 1.6 12.9 0.00 0.00 0.00 43 1006.0
20260503221551 22 253 4.8 19.3 0.00 0.00 0.00 44 1006.0
20260503220047 22 267 3.2 20.9 0.00 0.00 0.00 45 1006.0
20260503214546 22 227 3.2 22.5 0.00 0.00 0.00 47 1006.0
20260503213100 22 309 4.8 19.3 0.00 0.00 0.00 47 1006.0
20260503211542 21 284 6.4 22.5 0.00 0.00 0.00 47 1006.2
20260503210048 21 246 3.2 22.5 0.00 0.00 0.00 47 1006.3
20260503204547 21 252 4.8 24.1 0.00 0.00 0.00 51 1006.4
20260503203034 20 225 3.2 35.4 0.00 0.00 0.00 51 1006.6
20260503201532 20 213 4.8 30.6 0.00 0.00 0.00 50 1006.8
20260503200029 20 221 4.8 20.9 0.00 0.00 0.00 54 1007.2
20260503194527 20 233 4.8 29.0 0.00 0.00 0.00 51 1007.6
20260503193033 19 235 4.8 30.6 0.00 0.00 0.00 52 1007.8
20260503191523 19 218 4.8 24.1 0.00 0.00 0.00 54 1007.9
20260503190024 19 212 3.2 29.0 0.00 0.00 0.00 51 1008.0
20260503184533 18 248 8.0 27.4 0.00 0.00 0.00 54 1008.2
20260503183017 18 235 4.8 27.4 0.00 0.00 0.00 52 1008.2
20260503181516 18 254 4.8 32.2 0.00 0.00 0.00 53 1008.2
20260503180022 18 218 4.8 27.4 0.00 0.00 0.00 55 1008.5
20260503174511 18 230 6.4 29.0 0.00 0.00 0.00 54 1008.6
20260503173014 17 230 6.4 32.2 0.00 0.00 0.00 57 1008.8
20260503171506 17 253 6.4 30.6 0.00 0.00 0.00 55 1009.0
20260503100106 10 240 1.6 12.9 0.00 0.00 0.00 57 1013.0
20260503081547 10 257 3.2 16.1 0.00 0.00 0.00 56 1014.0
20260503071542 10 250 4.8 19.3 0.00 0.00 0.00 56 1014.5
20260503054532 11 227 4.8 20.9 0.00 0.00 0.00 51 1015.1
20260503053029 11 213 3.2 17.7 0.00 0.00 0.00 49 1015.2
20260503051517 11 209 6.4 22.5 0.00 0.00 0.00 48 1015.4
20260503050015 11 226 3.2 24.1 0.00 0.00 0.00 48 1015.5
20260503044513 11 270 3.2 16.1 0.00 0.00 0.00 48 1015.6
20260503043112 11 239 4.8 16.1 0.00 0.00 0.00 49 1015.8
20260503041511 11 240 8.0 19.3 0.00 0.00 0.00 48 1016.0
20260503040008 11 227 0.0 11.3 0.00 0.00 0.00 49 1016.2